Hourly Data Report for May 21, 2021

WESTERN HEAD
NOVA SCOTIA
Current Station Operator: ECCC - MSC

43°59'24.070" N
64°39'51.008" W
10.10 m
8206240
71411
WWE

Download Data

Hourly Data (May 2021)
Hourly Data Report for May 21, 2021
TIME
LST
Temp Definition
°C
Dew Point Definition
°C
Rel Hum Definition
%
Precip. Amount Definition
mm

Wind Dir Definition
10's deg

Wind Spd Definition
km/h
Visibility Definition
km
Stn Press Definition
kPa
Hmdx Definition


Wind Chill Definition


Weather Definition


00:00 4.2 4.2 100 0.0 21 5   103.23     LegendNANA
01:00 5.9 5.9 100 0.0 19 10   103.23     LegendNANA
02:00 5.7 5.7 100 0.0 21 8   103.25     LegendNANA
03:00 5.4 LegendMM LegendMM 0.0 22 6   103.23     LegendNANA
04:00 4.8 LegendMM LegendMM 0.0 25 6   103.23     LegendNANA
05:00 3.9 LegendMM LegendMM 0.0 23 7   103.22     LegendNANA
06:00 5.1 LegendMM LegendMM 0.0 23 5   103.25     LegendNANA
07:00 6.6 LegendMM LegendMM 0.0 20 5   103.26     LegendNANA
08:00 8.1 LegendMM LegendMM 0.0 18 7   103.27     LegendNANA
09:00 8.8 LegendMM LegendMM 0.0 18 10   103.29     LegendNANA
10:00 9.3 LegendMM LegendMM 0.0 19 12   103.25     LegendNANA
11:00 9.4 7.8 90 0.0 20 13   103.23     LegendNANA
12:00 10.6 8.7 88 0.0 19 18   103.19     LegendNANA
13:00 10.2 8.4 89 0.0 20 18   103.12     LegendNANA
14:00 10.1 8.4 89 0.0 20 22   103.06     LegendNANA
15:00 10.3 8.7 90 0.0 20 24   103.01     LegendNANA
16:00 9.5 8.5 94 0.0 20 26   102.97     LegendNANA
17:00 8.9 8.3 96 0.0 20 26   102.93     LegendNANA
18:00 7.9 7.8 100 0.0 21 25   102.90     LegendNANA
19:00 7.5 7.5 100 0.0 20 23   102.88     LegendNANA
20:00 7.0 7.0 100 0.0 20 18   102.86     LegendNANA
21:00 7.1 7.1 100 0.0 22 16   102.88     LegendNANA
22:00 6.7 6.7 100 0.0 21 19   102.87     LegendNANA
23:00 6.8 LegendMM LegendMM 0.0 22 14   102.83     LegendNANA

Notes on Data Quality.

Legend

  • E = Estimated
  • M = Missing
  • NA = Not Available*
  • [empty] = Indicates an unobserved value
Date modified: